Showing default

ORBCOMM FM 110, 41182

Orbit data source: Space-Track

ORBCOMM FM 110, 41182 is a payload satellite owned by Orbcomm (US) in LEO that was launched on Tue, 22 Dec 2015 UTC via an FALCON 9 launch vehicle from the Air Force Eastern Test Range (AFETR). Payloads include a variety of satellites, spacecraft, and rockets equipped with specific instruments for various scientific and technological missions. These include communications satellites like Starlink; space stations such as the ISS; scientific satellites like the Hubble; Earth observation satellites from companies like Planet Labs, Umbra, and HawkEye 360; GPS; miniature CubeSats for education and research; and military/defense satellites.

Loading next visibility...
ORBCOMM FM 110 details
Identifier
41182, 2015-081D
Orbit
LEO
Last TLE update1 day ago
Origin
Flag of USOrbcomm (US / ORB)
ManufacturerSNC Louisville
MissionOperational Commercial Communications
Bus & MotorSN-100A, Unknown motor
Mass172 kg wet, 158 kg dry
Launch date (UTC)
2015-12-22 (9 years ago)
Launch vehicle
FALCON 9
Launch site
Air Force Eastern Test Range (AFETR)
Object type
Payload
Rocket body
Debris
Shape & HBRBox + 1 Pan + 1 Ant, 13 m
Radar Cross Section2.222 m², Medium (>0.1 m² and < 1m²)

Expand to show TLE details & history

TLE from 1 day ago
0 ORBCOMM FM 110
1 41182U 15081D   24360.46543429  .00003035  00000-0  69506-3 0  9993
2 41182  47.0023  26.4493 0001067   9.7307 350.3599 14.57689067478996
Epoch: 2024-12-25T11:10Z
Definitive object data (Epoch: 2024-12-25T11:10:13.522Z)
Latitude-0.00001°
Longitude124.43416°
Altitude700.117 km
Speed7.508 km/s
True Right ascension01h 45m 47s
True Declination0° 00' 00"
Sunlit
Object was in daylight at TLE epoch
Visualization TLE readout
Latitude-8.82712°
Longitude111.31029°
Altitude701.732 km
Speed7.506 km/s
Apparent Right ascension00h 10m 26s
Apparent Declination-23° 56' 52"
Sunlit
Object is in daylight
Visualization observer readout
Local Sidereal Time11:08:49
Azimuth316.307° NNW
Elevation-69.43°
Doppler factor1
Orbital elements
Apogee altitude702.635 km
Perigee altitude701.124 km
Semi-major axis7,080.017 km
Eccentricity0.0001067
Inclination47.0023°
RAAN26.4493°
Arg. of periapsis9.7307°
True anomaly350.35785°
Mean anomaly350.3599°
Eccentric anomaly350.35888°
Mean motion3.64327 °/min
BSTAR0.00069506
Orbital period98.81 mins
Loading maneuver chart data...
Loading historical data...
Loading historical data...
Loading historical data...
Loading historical data...
Loading historical data...
Loading historical data...
Loading historical data...

ORBCOMM FM 110 Visibility forecast

Observer location: undefined°, undefined

Span
Click to sort rows by Start time (UTC) header in descending order
Start Az.
Max El. time (UTC)
Max El. Az.
Max El.
End time (UTC)
End Az.
6 mins2024-12-26 12:24:25.559Z269.833° W2024-12-26 12:27:25.559Z231.047° WSW19.094°2024-12-26 12:30:25.559Z187.266° SSW
8 mins2024-12-27 04:29:25.559Z214.956° SW2024-12-27 04:32:25.559Z156.32° SSE38.838°2024-12-27 04:37:25.559Z68.441° E
7 mins2024-12-27 06:13:25.559Z276.768° WNW2024-12-27 06:16:25.559Z348.082° N37.323°2024-12-27 06:20:25.559Z55.775° ENE
7 mins2024-12-27 07:57:25.559Z305.111° NW2024-12-27 08:00:25.559Z359.169° N30.698°2024-12-27 08:04:25.559Z66.175° ENE
8 mins2024-12-27 09:41:25.559Z305.748° NW2024-12-27 09:44:25.559Z3.651° NNE41.498°2024-12-27 09:49:25.559Z104.155° ESE
7 mins2024-12-27 11:25:25.559Z271.911° WNW2024-12-27 11:28:25.559Z210.777° SW30.036°2024-12-27 11:32:25.559Z155.439° SSE
|